Regional Weather Roundup
Issued by NWS

Home | Current Version | Previous Version | Text Only | Print | Product List | Glossary On
Versions: 1 2 3 4 5 6 7 8 9 10 11 12 13 14 15 16 17 18 19 20 21 22 23 24 25 26 27 28 29 30 31 32 33 34 35 36 37 38 39 40 41 42 43 44 45 46 47 48 49 50
000
ASUS43 KMPX 232310
RWRMN
WEATHER ROUNDUP FOR MINNESOTA
NATIONAL WEATHER SERVICE TWIN CITIES/CHANHASSEN MN
600 PM CDT TUE SEP 23 2014


NOTE: "FAIR" INDICATES FEW OR NO CLOUDS BELOW 12,000 FEET WITH NO
SIGNIFICANT WEATHER AND/OR OBSTRUCTIONS TO VISIBILITY. N/A MEANS
CURRENT SKY AND/OR WEATHER CONDITIONS ARE NOT AVAILABLE.

MNZ060>063-068>070-240000-
   Twin Cities Metro

CITY           SKY/WX    TMP DP  RH WIND       PRES   REMARKS
TWIN CITIES    PTSUNNY   72  49  44 S13       30.14S
ST PAUL        MOSUNNY   70  52  52 SE12      30.14F
CRYSTAL        MOSUNNY   72  51  47 S8        30.12F
BLAINE         PTSUNNY   72  54  53 SE8       30.14F
LAKEVILLE      PTSUNNY   68  52  56 S8        30.15S
EDEN PRAIRIE   PTSUNNY   70  51  51 SE9       30.12F
SOUTH ST PAUL  MOSUNNY   72  51  47 SE6       30.14F
LAKE ELMO      FAIR      68  54  60 SE6       30.16F
$$
MNZ001>005-007-008-013>017-022>024-027-028-240000-
   Northwest Minnesota

CITY           SKY/WX    TMP DP  RH WIND       PRES   REMARKS
BEMIDJI        MOSUNNY   70  51  51 S8        30.06S
HALLOCK        MOSUNNY   75  55  50 S14       29.96S
ROSEAU         MOSUNNY   73  57  56 S16       30.01R
WARROAD        SUNNY     73  57  56 S7        30.01S
THIEF RVR FALL MOSUNNY   73  52  46 S16G22    30.01S
CROOKSTON      MOSUNNY   72  50  46 S24G33    30.03R
FOSSTON        MOSUNNY   70  52  52 S17       30.05R
DETROIT LAKES  PTSUNNY   63  54  72 S9        30.09S
MOORHEAD       CLOUDY    64  55  72 S12       30.06S
PARK RAPIDS    PTSUNNY   68  52  56 S12       30.09R
MAHNOMEN       FAIR      66  51  60 S15G22    30.07R
$$
MNZ006-009>011-018-025>026-240000-
   North Central Minnesota

CITY           SKY/WX    TMP DP  RH WIND       PRES   REMARKS
BAUDETTE       SUNNY     72  50  45 S10G21    30.04R
FLAG ISLAND    SUNNY     64  55  72 S15       29.99F
INTL FALLS     SUNNY     71  51  49 VRB5      30.07S
WASKISH        MOSUNNY   68  54  60 CALM      30.06S
BIG FORK       MOSUNNY   66  52  59 S3        30.11S
LONGVILLE      SUNNY     70  52  52 S10       30.10S
GRAND RAPIDS   PTSUNNY   70  50  49 S13       30.12S
CRANE LAKE     SUNNY     72  48  43 S5        30.12R
ORR            SUNNY     70  46  43 S7        30.09S
COOK           SUNNY     72  50  46 SE6       30.12S
WALKER         FAIR      69  51  52 S8        30.08S
$$
MNZ012-019>021-037-240000-
   Northeast Minnesota

CITY           SKY/WX    TMP DP  RH WIND       PRES   REMARKS
DULUTH         MOSUNNY   68  51  54 S6        30.15F
ELY            CLEAR     70  46  43 S9        30.14R
HIBBING        MOSUNNY   68  51  54 S6        30.13S
EVELETH        SUNNY     64  46  52 S7        30.15S
DULUTH HARBOR  MOSUNNY   63  57  82 NE3       30.15S
TWO HARBORS    CLEAR     66  52  59 SE3       30.14S
SILVER BAY     CLEAR     66  55  68 S5        30.15R
GRAND MARAIS     N/A     57  51  80 CALM      30.17S
G MARAIS ARPRT CLEAR     63  48  59 S6        30.20S
$$
MNZ029>031-032-039>041-046>048-054>057-064-240000-
   West Central Minnesota

CITY           SKY/WX    TMP DP  RH WIND       PRES   REMARKS
FERGUS FALLS   CLOUDY    66  46  48 S18       30.07S
WHEATON        CLOUDY    63  52  67 SE16G22   30.06F
MORRIS         CLOUDY    66  52  59 S16G23    30.06S
ALEXANDRIA     CLOUDY    66  54  65 SE8       30.10F
ELBOW LAKE     FAIR      64  52  65 SE8       30.06F
WADENA         PTSUNNY   66  54  63 S7        30.09S
GLENWOOD       MOSUNNY   66  52  59 SE12G17   30.09F
APPLETON       DRIZZLE   61  55  82 S16       30.08R
BENSON         CLOUDY    63  55  77 SW22G28   30.09R
ORTONVILLE     CLOUDY    61  55  82 SE13G21   30.06R
MADISON        DRIZZLE   61  57  88 SE10      30.07S
WILLMAR        LGT RAIN  64  52  63 SW10G17   30.12R
$$
MNZ033>034-036-042>043-049>051-058-059-240000-
   Central Minnesota

CITY           SKY/WX    TMP DP  RH WIND       PRES   REMARKS
ST CLOUD       PTSUNNY   71  53  52 SE10      30.11S
SAUK CENTRE    MOCLDY    68  52  55 SE14      30.10S
PAYNESVILLE    CLOUDY    67  51  56 E7        30.10F
AITKIN         SUNNY     72  54  53 S10       30.11S
PINE RIVER     MOSUNNY   70  54  56 S7        30.13S
BRAINERD       MOSUNNY   67  52  58 SE7       30.12S
STAPLES        MOSUNNY   68  52  56 S10       30.10S
LONG PRAIRIE   FAIR      68  52  56 SE14      30.10S
LITTLE FALLS   MOSUNNY   68  52  56 SE7       30.11S
LITCHFIELD     PTSUNNY   70  54  56 SE3       30.11S
BUFFALO        PTSUNNY   70  52  53 SE6       30.13S
MAPLE LAKE     PTSUNNY   70  55  58 SE6       30.13S
$$
MNZ037-044-045-052-053-240000-
   East Central Minnesota

CITY           SKY/WX    TMP DP  RH WIND       PRES   REMARKS
PRINCETON      MOSUNNY   72  52  49 SE9       30.14R
MORA           MOSUNNY   68  52  56 S10       30.16S
CAMBRIDGE      MOSUNNY   72  54  53 SE7       30.13S
RUSH CITY      PTSUNNY   68  52  55 S5        30.15S
MOOSE LAKE     MOSUNNY   68  50  52 CALM      30.13S
HINCKLEY       FAIR      70  54  56 S8        30.14F
CLOQUET        PTSUNNY   70  46  43 S6        30.15S
MCGREGOR       MOSUNNY   68  52  56 S6        30.14R
$$
MNZ071>073-080-081-089-090-097-098-240000-
   Southwest Minnesota

CITY           SKY/WX    TMP DP  RH WIND       PRES   REMARKS
MONTEVIDEO     DRIZZLE   57  57 100 S8        30.10S
GRANITE FALLS  DRIZZLE   58  57  96 E5        30.10F
CANBY          LGT RAIN  58  55  91 SE9       30.07F
MARSHALL       CLOUDY    59  52  77 S15G21    30.07S
REDWOOD FALLS  CLOUDY    65  56  72 S10       30.10S
OLIVIA         CLOUDY    63  54  72 SW3       30.10F
PIPESTONE      CLOUDY    61  55  82 S14G21    30.05F
WINDOM         CLOUDY    63  52  67 SE14G23   30.11F
WORTHINGTON    CLOUDY    61  50  67 S12G20    30.09F
JACKSON        CLOUDY    61  50  67 SE12G20   30.12F
TRACY          CLOUDY    62  55  78 S13       30.08F
SLAYTON        PTSUNNY   61  52  73 SE12G20   30.08F
$$
MNZ065>067-074>077-082>085-091>093-240000-
   South Central Minnesota

CITY           SKY/WX    TMP DP  RH WIND       PRES   REMARKS
MANKATO        CLOUDY    70  46  43 S9        30.13S
NEW ULM        LGT RAIN  66  54  63 S13       30.11S
ST JAMES       CLOUDY    66  54  63 S12       30.13S
FAIRMONT       CLOUDY    63  52  67 S10       30.14S
GLENCOE        CLOUDY    72  47  41 SE9       30.11S
FARIBAULT      CLOUDY    73  45  35 SE6       30.15S
OWATONNA       CLOUDY    70  50  49 SE7       30.15F
WASECA         CLOUDY    68  45  42 SE8       30.16S
ALBERT LEA     CLOUDY    68  48  49 S9        30.16R
$$
MNZ078>079-086>088-094>096-240000-
   Southeast Minnesota

CITY           SKY/WX    TMP DP  RH WIND       PRES   REMARKS
ROCHESTER      MOSUNNY   67  50  54 S8        30.20R
RED WING       SUNNY     72  48  43 S7G16     30.16R
STANTON        MOSUNNY   70  49  48 SE3       30.14S
DODGE CENTER   PTSUNNY   68  52  56 SE10      30.18S
WINONA         MOSUNNY   70  52  52 S3        30.19F
AUSTIN         CLOUDY    68  50  52 SE9       30.17S
PRESTON        MOSUNNY   66  55  67 S7        30.21S
$$
ABBREVIATIONS USED IN REMARKS
   TC - TEMPERATURES IN CELSIUS
  WCI - WIND CHILL INDEX
   HX - HEAT INDEX
  VSB - VISIBILITY
$$


USA.gov is the U.S. government's official web portal to all federal, state and local government web resources and services.